TimePST,TemperatureF,Dew PointF,Humidity,Sea Level PressureIn,VisibilityMPH,Wind Direction,Wind SpeedMPH,Gust SpeedMPH,PrecipitationIn,Events,Conditions,WindDirDegrees,DateUTC
12:02 AM,33.8,30.2,87,30.07,8.0,Calm,Calm,-,N/A,,Overcast,0,2013-03-04 08:02:00
12:53 AM,32.0,28.0,85,30.06,9.0,Calm,Calm,-,N/A,,Mostly Cloudy,0,2013-03-04 08:53:00
1:53 AM,32.0,28.9,88,30.07,10.0,Calm,Calm,-,N/A,,Overcast,0,2013-03-04 09:53:00
2:53 AM,32.0,28.0,85,30.07,10.0,South,3.5,-,N/A,,Overcast,190,2013-03-04 10:53:00
3:53 AM,30.0,26.1,85,30.07,10.0,South,3.5,-,N/A,,Clear,190,2013-03-04 11:53:00
4:53 AM,28.9,25.0,85,30.07,10.0,Calm,Calm,-,N/A,,Clear,0,2013-03-04 12:53:00
5:53 AM,28.0,23.0,81,30.10,10.0,Calm,Calm,-,N/A,,Clear,0,2013-03-04 13:53:00
6:53 AM,26.1,21.9,84,30.12,10.0,Calm,Calm,-,N/A,,Clear,0,2013-03-04 14:53:00
7:53 AM,28.9,23.0,78,30.12,10.0,Calm,Calm,-,N/A,,Clear,0,2013-03-04 15:53:00
8:53 AM,34.0,26.1,73,30.11,10.0,Calm,Calm,-,N/A,,Clear,0,2013-03-04 16:53:00
9:53 AM,39.0,26.1,60,30.09,10.0,Calm,Calm,-,N/A,,Clear,0,2013-03-04 17:53:00
10:53 AM,43.0,27.0,53,30.09,10.0,NNE,5.8,-,N/A,,Clear,30,2013-03-04 18:53:00
11:53 AM,45.0,30.0,56,30.07,10.0,NE,8.1,-,N/A,,Clear,40,2013-03-04 19:53:00
12:53 PM,46.9,30.9,54,30.04,10.0,NE,6.9,-,N/A,,Clear,40,2013-03-04 20:53:00
1:53 PM,48.0,30.9,52,30.04,10.0,Variable,5.8,-,N/A,,Clear,0,2013-03-04 21:53:00
2:53 PM,48.9,30.9,50,30.03,10.0,NE,5.8,-,N/A,,Clear,50,2013-03-04 22:53:00
3:53 PM,50.0,30.0,46,30.02,10.0,NNE,6.9,-,N/A,,Clear,20,2013-03-04 23:53:00
4:53 PM,48.0,30.9,52,30.00,10.0,Calm,Calm,-,N/A,,Clear,0,2013-03-05 00:53:00
5:53 PM,41.0,28.9,62,30.04,10.0,Calm,Calm,-,N/A,,Clear,0,2013-03-05 01:53:00
6:53 PM,37.0,30.0,76,30.07,10.0,Calm,Calm,-,N/A,,Clear,0,2013-03-05 02:53:00
7:53 PM,36.0,30.0,79,30.07,10.0,Calm,Calm,-,N/A,,Clear,0,2013-03-05 03:53:00
8:53 PM,34.0,28.9,82,30.04,10.0,Calm,Calm,-,N/A,,Clear,0,2013-03-05 04:53:00
9:53 PM,30.9,27.0,85,30.03,10.0,Calm,Calm,-,N/A,,Clear,0,2013-03-05 05:53:00
11:53 PM,30.0,25.0,82,30.01,10.0,Calm,Calm,-,N/A,,Clear,0,2013-03-05 07:53:00